Weather History for CWIC - September, 2013

Change the Weather History Date:

Tuesday, September 17, 2013

  Actual Average Record
Temperature  
Mean Temperature 20 °F -  
Max Temperature 23 °F - - ()
Min Temperature 14 °F - - ()
Degree Days  
Heating Degree Days 45    
Moisture  
Dew Point 19 °F    
Average Humidity 96    
Maximum Humidity 98    
Minimum Humidity 91    
Precipitation  
Precipitation 0.03 in - - ()
Sea Level Pressure  
Sea Level Pressure 30.05 in    
Wind  
Wind Speed 17 mph ()    
Max Wind Speed 25 mph    
Max Gust Speed -    
T = Trace of Precipitation, MM = Missing Value Source: Averaged Metar Reports

Daily Weather History Graph

Daily Weather History Graph

Search for Another Location

Airport or City:

Trip Planner

Search our weather history database for the weather conditions in past years. The results will help you decide how hot, cold, wet, or windy it might be!

Date:

Astronomy

Sep. 17, 2013 Rise Set
Actual Time 5:48 AM MDT 7:43 PM MDT
Civil Twilight 3:42 AM MDT 9:45 PM MDT
Nautical Twilight Sun does not rise Sun does not rise
Astronomical Twilight Sun does not rise Sun does not rise
Moon 7:19 PM MDT (9/17) 1:43 AM MDT (9/17)
Length of Visible Light 18h 02m
Length of Day
13h 54m
Waxing Gibbous, 96% of the Moon is Illuminated
Sep 17
Waxing Gibbous
Sep 19
Full
Sep 26
Last Quarter
Oct 4
New
Oct 11
First Quarter

Hourly Weather History & Observations

Time (MDT) Temp. Windchill Dew Point Humidity Pressure Visibility Wind Dir Wind Speed Gust Speed Precip Events Conditions
12:00 AM 22 °F - 22 °F 97% 29.97 in - NNW 24.2 mph - -  
12:00 AM 22.3 °F 5.9 °F 21.7 °F 98% 29.97 in - North 24.2 mph - 0.01 in   Unknown
1:00 AM 22.5 °F 6.2 °F 21.9 °F 98% 29.96 in - North 24.2 mph - N/A   Unknown
2:00 AM 23.2 °F 7.5 °F 22.6 °F 98% 29.97 in - North 23.0 mph - 0.01 in   Unknown
3:00 AM 23.4 °F 8.1 °F 22.8 °F 98% 29.99 in - NNW 21.9 mph - N/A   Unknown
4:00 AM 23.0 °F 10.6 °F 22.3 °F 97% 30.03 in - North 13.8 mph - N/A   Unknown
5:00 AM 20.8 °F 8.4 °F 19.9 °F 96% 30.04 in - North 12.7 mph - N/A   Unknown
6:00 AM 21 °F - 20 °F 93% 30.04 in - NW 11.5 mph - -  
6:00 AM 20.7 °F 9.5 °F 19.8 °F 96% 30.04 in - NW 10.4 mph - N/A   Unknown
8:00 AM 19.9 °F 6.2 °F 19.0 °F 96% 30.03 in - NW 15.0 mph - N/A   Unknown
9:00 AM 19.9 °F 6.2 °F 19.0 °F 96% 30.03 in - NNW 15.0 mph - N/A   Unknown
10:00 AM 19.2 °F 4.7 °F 18.3 °F 96% 30.04 in - NNW 16.1 mph - N/A   Unknown
11:00 AM 19.6 °F 4.7 °F 18.7 °F 96% 30.04 in - NW 17.3 mph - N/A   Unknown
12:00 PM 20 °F - 18 °F 91% 30.05 in - NW 16.1 mph - -  
12:00 PM 19.6 °F 5.7 °F 18.7 °F 96% 30.05 in - NW 15.0 mph - N/A   Unknown
1:00 PM 20.3 °F 6.6 °F 19.4 °F 96% 30.06 in - NNW 15.0 mph - 0.01 in   Unknown
2:00 PM 20.5 °F 6.9 °F 19.6 °F 96% 30.06 in - NNW 15.0 mph - N/A   Unknown
3:00 PM 19.2 °F 3.4 °F 18.1 °F 96% 30.07 in - NNW 19.6 mph - N/A   Unknown
4:00 PM 18.3 °F 3.1 °F 17.2 °F 96% 30.08 in - NNW 17.3 mph - N/A   Unknown
5:00 PM 19.0 °F 4.5 °F 18.1 °F 96% 30.08 in - NNW 16.1 mph - N/A   Unknown
6:00 PM 19 °F - 18 °F 94% 30.09 in - NNW 17.3 mph - -  
6:00 PM 19.0 °F 5.0 °F 18.1 °F 96% 30.09 in - NNW 15.0 mph - N/A   Unknown
7:00 PM 18.5 °F 2.4 °F 17.6 °F 96% 30.09 in - NNW 19.6 mph - N/A   Unknown
8:00 PM 18.0 °F 1.7 °F 16.9 °F 96% 30.09 in - NNW 19.6 mph - N/A   Unknown
9:00 PM 18.9 °F 1.0 °F 18.0 °F 96% 30.09 in - North 25.3 mph - N/A   Unknown
10:00 PM 17.4 °F 4.7 °F 15.4 °F 92% 30.11 in - West 11.5 mph - N/A   Unknown
11:00 PM 14.0 °F -1.4 °F 12.6 °F 94% 30.11 in - WNW 15.0 mph - 0.01 in   Unknown